Location: Okie-Tex Star Party
(36.8978°N, 102.9520°W)
Time: 17:59:57
(UTC-05:00)

Oscar 16 - Visible Passes

Search period start: 29 May 2016 00:00
Search period end: 08 June 2016 00:00
Orbit: 776 x 790 km, 98.6° (Epoch: 28 May)

Date Brightness Start Highest point End Pass type
(mag) Time Alt. Az. Time Alt. Az. Time Alt. Az.
29 May 10.8 03:16:23 10° NNE 03:21:31 64° ESE 03:21:32 64° ESE visible
29 May 12.6 04:57:32 10° NNW 05:00:16 15° WNW 05:02:06 12° W visible
30 May 11.9 02:45:16 10° NE 02:49:34 31° E 02:49:34 31° E visible
30 May 11.8 04:24:40 10° N 04:29:00 28° WNW 04:30:09 26° W visible
31 May 12.8 02:15:04 10° ENE 02:17:37 15° E 02:17:37 15° E visible
31 May 10.8 03:52:33 10° N 03:57:37 56° WNW 03:58:11 53° W visible
01 Jun 10.6 03:20:54 10° NNE 03:26:04 71° ESE 03:26:13 71° ESE visible
01 Jun 12.7 05:02:25 10° NW 05:04:44 13° WNW 05:06:48 11° W visible
02 Jun 11.7 02:49:42 10° NNE 02:54:15 34° E 02:54:15 34° E visible
02 Jun 11.9 04:29:19 10° NNW 04:33:30 26° WNW 04:34:50 23° W visible
03 Jun 12.7 02:19:18 10° NE 02:22:17 17° E 02:22:17 17° E visible
03 Jun 10.9 03:57:08 10° N 04:02:07 51° WNW 04:02:52 47° W visible
04 Jun 10.5 03:25:25 10° NNE 03:30:36 79° ESE 03:30:53 75° SE visible
04 Jun 12.7 05:07:24 10° NW 05:09:12 12° WNW 05:11:00 10° W visible
05 Jun 11.6 02:54:09 10° NNE 02:58:55 38° E 02:58:55 38° E visible
05 Jun 12.0 04:33:59 10° NNW 04:38:00 23° WNW 04:39:30 20° W visible
06 Jun 12.6 02:23:35 10° NE 02:26:57 18° E 02:26:57 18° E visible
06 Jun 11.1 04:01:43 10° N 04:06:38 46° WNW 04:07:31 42° W visible
07 Jun 10.4 03:29:57 10° NNE 03:35:07 87° ESE 03:35:32 76° S visible
07 Jun 12.8 05:12:39 10° NW 05:13:40 11° WNW 05:14:42 10° WNW visible
